Dewpoint
7 7 7 5 5 7 7 6 5 3 -7 -3 -3 2 7 7 7 6 7 7 7 6 5 7 5 5 4 4 3 5 5 4 2 -1 -2 -3 -2 -1 -2 -2 -2 -2 -2 2 5
5 6 6 7 5 6 6 7 6 4 -3 -3 -2 3 8 4 7 7 6 7 5 4 7 6 4 4 3 3 4 4 4 2 -2 -3 -2 -2 -0 -1 -0 -1 -3 -1 -0 2 4
1 1 6 6 7 5 6 7 6 5 -0 -2 -2 5 8 4 9 7 7 6 7 4 8 5 4 3 2 2 3 3 4 -1 -1 2 2 1 -0 -0 0 1 -1 -2 -1 1 2
1 1 2 5 6 6 6 7 7 5 -0 -2 -1 6 8 9 9 9 8 8 7 8 7 6 5 4 3 3 2 3 1 1 0 1 4 3 1 -0 1 0 -1 -1 0 2 2
1 1 1 3 5 6 5 6 8 5 -0 -1 -0 3 6 8 8 6 6 6 8 9 8 7 5 4 4 2 2 4 2 -1 1 2 3 3 3 3 2 2 1 1 2 3 3
1 0 1 1 3 5 6 5 7 5 2 -2 1 1 6 7 7 7 5 7 8 9 9 8 6 5 4 3 3 2 3 2 2 3 3 3 2 1 1 1 1 2 2 2 3
1 1 0 0 -0 3 5 6 5 6 3 0 3 2 5 5 4 5 7 7 8 9 9 8 8 7 6 5 4 4 5 3 2 2 2 2 3 3 1 0 -0 -0 0 0 1
1 1 -0 0 1 2 4 6 5 6 1 3 5 5 4 4 4 1 4 7 7 8 8 8 7 7 4 4 3 4 3 5 1 1 0 1 3 -1 -0 0 1 0 -1 -1 -1
0 0 0 -0 -0 -0 3 5 5 7 1 3 4 5 3 2 3 3 3 5 6 6 7 8 7 5 4 4 3 2 4 3 2 -0 1 2 3 -1 1 -0 -0 0 0 0 0
-1 -4 -3 -2 -3 -1 1 4 5 6 3 5 5 4 3 3 4 4 3 5 4 5 5 4 3 3 3 3 4 3 4 2 1 -1 1 2 1 -1 -1 -0 1 0 -0 -0 0
-2 -3 -2 -3 -2 0 0 3 6 5 5 5 4 2 3 4 4 4 3 4 4 3 4 3 5 5 2 1 1 1 1 1 -0 -2 1 1 0 -2 -3 -3 -2 -2 -1 -1 -1
-2 -2 -1 -2 -2 -1 0 1 3 5 5 4 3 3 3 3 3 3 2 3 3 5 3 5 6 2 1 1 2 2 2 2 -0 -1 -0 0 0 -2 -3 -3 -4 -3 -3 -3 -3
-2 -1 -1 -1 -1 -3 -1 0 3 4 4 4 3 3 4 3 2 3 2 1 3 4 3 4 2 0 1 2 3 2 3 2 1 -0 -1 0 1 -2 -4 -4 -5 -5 -4 -4 -4
-1 -1 -1 -1 -1 2 2 0 1 4 5 5 4 2 3 3 2 3 2 2 2 3 2 3 0 1 1 2 1 3 -1 -0 1 2 3 -1 2 -4 -8 -7 -7 -6 -6 -6 -6
-1 -1 -1 -1 0 1 1 3 1 4 7 2 3 3 2 1 2 3 2 2 2 2 2 3 2 2 2 1 0 2 0 1 1 2 2 -0 3 -2 -8 -8 -8 -8 -6 -5 -5
-1 -1 -0 -0 -0 -1 -0 1 3 5 7 4 3 3 2 -0 2 3 3 2 1 0 1 -0 -1 -0 0 -0 -0 -0 1 1 1 2 5 0 -0 -1 -6 -10 -9 -10 -8 -7 -6
-0 1 1 1 0 1 -0 3 4 7 1 5 2 3 2 1 2 2 3 3 3 5 5 2 1 -0 -1 1 0 1 2 4 6 6 4 -5 -3 -3 -7 -9 -9 -8 -8 -8 -7
1 1 1 2 1 1 2 2 5 3 2 0 3 2 3 1 1 2 3 3 0 1 3 4 6 1 0 1 1 1 2 3 2 -1 -2 -4 -2 -4 -8 -9 -8 -9 -7 -7 -5
1 1 1 2 1 1 2 3 6 1 1 3 2 3 3 2 2 2 2 3 0 1 4 4 4 -1 -0 -1 -0 2 4 1 3 1 2 -2 -4 -7 -8 -8 -9 -8 -7 -7 -4
1 1 2 0 0 0 3 5 3 -0 -0 0 3 1 3 2 4 2 2 -0 1 -1 -1 1 5 -0 -1 0 -0 1 -1 4 5 4 2 -3 -4 -4 -7 -7 -9 -8 -7 -7 -3
1 1 1 1 1 2 4 5 2 -0 -0 1 1 1 1 1 1 1 2 0 -1 -0 -1 -0 1 3 1 2 0 2 3 4 2 4 5 3 -1 -7 -7 -7 -6 -8 -8 -3 -3
1 2 2 0 3 2 5 4 1 1 2 1 -1 -1 -0 0 1 1 1 -1 -1 -0 1 -0 1 4 2 -2 -2 -1 1 1 5 3 4 4 3 -5 -7 -7 -7 -7 -3 -5 -5
1 2 2 2 3 2 3 3 1 3 3 2 1 -0 -1 0 2 1 0 -1 -2 0 1 0 4 5 5 2 -1 1 -0 -0 2 4 6 6 2 -8 -7 -7 -8 -7 -5 -5 -5
1 3 2 2 3 1 5 3 4 3 2 1 1 -1 0 1 0 1 1 0 -1 -1 0 -0 2 5 3 5 2 6 3 2 5 6 4 3 2 -1 -3 -3 -2 -4 -5 -6 -5
3 3 2 4 2 2 2 2 3 2 2 1 1 0 -0 1 1 1 1 1 0 -0 -0 0 6 4 2 2 3 4 4 4 6 6 6 3 2 -1 -1 -1 0 -1 -2 -3 -2
2 3 2 1 -0 -0 1 2 2 3 1 2 1 1 1 1 1 2 1 1 1 1 1 2 5 5 5 3 3 5 4 5 7 6 6 6 6 2 -0 1 1 2 2 3 3
2 2 3 1 -0 -0 0 0 1 1 2 2 1 2 2 2 2 2 1 1 1 2 3 4 5 5 5 2 3 7 7 7 7 6 6 7 5 2 2 3 3 3 3 4 4
Wind_Speed
10 12 18 17 19 18 21 18 16 15 14 11 10 11 7 9 13 19 19 13 16 16 9 7 8 10 10 11 11 12 13 15 21 21 15 16 10 15 14 16 11 13 16 4 5
23 18 15 17 18 20 21 20 17 16 14 12 10 8 6 6 11 16 14 16 13 13 12 10 11 12 15 13 10 13 13 20 17 16 17 15 11 14 9 17 19 14 13 4 2
23 22 18 17 17 19 19 23 16 16 14 13 10 8 8 10 13 14 18 14 11 14 12 14 9 11 15 12 17 14 18 15 16 11 11 17 16 16 15 15 17 19 17 11 6
21 23 21 19 17 18 17 21 17 16 14 12 11 10 10 14 5 8 14 18 16 12 13 14 14 15 11 11 15 16 16 23 20 9 12 15 18 19 23 23 20 15 19 11 12
23 23 22 18 18 17 19 17 22 16 14 12 11 12 12 9 9 5 5 9 16 17 17 16 16 15 11 10 10 13 16 16 15 17 19 20 22 21 22 22 21 23 17 19 19
25 25 23 21 19 15 17 17 22 15 14 11 11 13 12 12 9 10 5 4 10 19 18 16 8 8 5 7 10 3 11 16 16 18 20 20 23 23 22 26 28 29 27 28 26
26 24 25 25 21 17 14 16 21 16 13 12 11 10 11 15 5 8 13 6 6 16 18 13 7 6 7 5 11 10 14 14 19 21 16 12 18 23 32 29 31 30 29 30 32
25 26 24 24 22 21 14 17 21 20 15 14 11 7 8 15 11 7 8 8 7 8 11 13 10 6 6 2 5 6 10 10 8 4 13 13 15 7 6 15 22 28 29 31 30
25 24 24 25 22 21 18 14 26 25 18 16 11 8 8 10 12 15 10 11 10 9 7 8 9 6 5 9 8 10 9 12 9 6 6 13 11 7 5 16 17 16 19 22 27
25 27 24 21 19 19 22 13 22 25 20 15 7 6 12 9 10 11 13 12 11 16 14 8 6 6 10 11 7 8 13 9 10 4 8 14 19 18 21 22 23 23 24 24 23
23 20 19 20 18 15 18 13 15 13 28 10 13 3 11 10 10 11 17 18 13 16 7 9 6 12 16 15 16 6 9 10 10 7 15 18 20 19 22 25 27 28 28 29 30
21 20 22 15 16 16 16 10 8 3 9 13 6 8 10 11 9 14 20 14 14 12 11 5 14 16 12 9 11 12 14 14 14 13 12 17 27 23 25 28 29 29 32 33 32
20 25 19 18 20 15 17 24 13 6 6 17 14 13 9 10 8 21 22 13 15 15 16 11 3 4 14 11 11 13 14 13 14 14 16 19 24 21 11 15 21 24 29 33 37
23 23 21 20 15 7 12 16 31 5 3 9 10 9 9 8 5 16 19 11 6 14 14 12 9 5 8 11 11 12 9 10 11 8 6 3 10 9 11 12 11 14 19 21 23
23 21 22 21 20 15 10 6 25 14 6 13 10 8 16 11 18 13 19 5 10 8 8 4 6 12 12 14 10 6 3 4 6 9 13 16 8 10 10 17 16 16 17 15 16
25 30 30 30 19 18 13 7 21 3 4 8 7 11 16 14 7 16 13 6 4 6 10 9 2 7 9 6 11 3 3 6 6 4 7 11 16 18 15 11 14 13 15 14 11
29 38 25 21 21 14 12 18 3 5 12 9 9 13 16 13 10 14 14 11 8 5 9 10 16 8 10 7 7 9 2 2 4 5 9 5 8 20 21 21 17 12 17 20 15
35 21 10 10 20 20 19 5 6 11 7 7 14 17 9 15 10 14 14 12 15 11 4 8 6 19 14 14 5 13 10 5 6 8 14 16 10 13 15 16 24 18 21 15 11
34 6 6 9 15 18 13 5 2 10 12 12 17 12 9 17 8 12 14 12 14 14 7 5 4 2 7 6 11 6 9 15 12 16 12 11 20 22 26 26 25 21 25 20 12
24 8 9 13 14 12 1 1 1 5 17 19 7 7 9 18 9 12 14 13 11 17 12 1 2 6 6 5 12 12 1 2 5 5 10 14 21 14 16 16 17 12 19 24 13
6 5 10 15 11 3 3 1 5 19 9 0 7 9 10 15 11 14 16 5 17 14 15 6 4 5 3 11 9 8 12 6 7 8 6 13 12 12 14 11 10 12 15 8 10
6 3 13 16 3 3 1 3 13 8 4 2 3 4 15 16 11 12 9 3 7 9 12 9 2 6 12 9 8 13 14 16 8 9 8 12 20 14 14 11 10 11 11 14 15
6 6 12 1 3 4 2 1 6 5 2 4 3 2 5 11 6 6 6 5 10 12 10 10 5 3 3 3 8 11 17 16 18 16 23 15 15 5 5 10 9 9 12 16 17
3 2 4 3 3 8 3 8 5 2 3 4 8 8 9 11 3 8 5 4 11 12 7 9 5 8 8 9 10 7 15 19 16 9 20 24 29 26 21 17 17 21 22 25 18
7 4 2 2 5 9 2 3 7 4 2 3 3 1 4 4 4 4 5 5 5 9 6 5 5 10 17 22 20 21 24 24 20 20 17 31 24 24 19 15 18 30 26 18 13
5 4 4 3 13 9 1 6 4 5 1 2 3 6 3 4 1 4 5 7 5 9 11 4 3 2 12 21 20 19 23 18 17 19 19 25 29 24 20 10 8 13 18 15 12
7 6 4 4 7 7 6 4 2 3 4 4 3 5 3 2 3 2 4 4 1 4 10 4 2 2 6 10 20 9 4 6 8 11 9 9 18 17 12 11 15 21 22 18 24
Wind_Direction
304 320 337 298 283 284 275 284 301 302 291 272 265 258 250 251 225 215 217 212 225 234 200 205 200 207 200 211 222 235 249 237 240 245 251 260 246 235 244 254 228 226 243 79 124
280 291 304 327 287 282 276 269 287 296 285 270 257 256 236 225 201 217 213 212 221 223 214 200 201 202 206 204 208 222 227 239 251 261 253 264 219 224 223 234 237 225 226 227 208
333 290 280 288 316 278 280 259 270 286 279 265 245 221 210 183 215 236 224 222 207 201 205 215 220 206 221 208 209 223 243 242 243 283 285 278 254 244 259 253 228 225 224 208 227
332 327 310 278 291 283 276 260 261 273 271 256 241 208 205 196 225 185 215 208 207 190 194 199 203 208 219 202 220 239 250 255 268 278 251 254 259 255 248 251 254 245 246 247 241
331 326 317 303 279 284 266 264 250 264 263 244 237 209 210 228 244 214 195 200 204 189 189 189 201 209 217 208 217 237 255 252 253 261 257 263 260 260 258 253 252 256 251 250 248
324 322 320 313 280 294 267 261 248 242 252 234 229 209 207 243 214 209 189 187 191 199 193 191 214 220 262 238 216 294 266 266 258 258 253 256 260 255 250 251 255 253 252 249 247
320 316 314 307 286 281 280 247 249 232 243 217 216 201 223 224 209 219 221 201 168 193 194 189 189 185 218 230 235 259 265 265 249 243 238 254 263 250 251 252 254 250 249 249 248
313 311 307 305 312 262 277 244 240 225 223 207 203 195 237 216 220 210 195 205 186 153 180 184 194 230 236 102 214 236 244 255 127 224 237 218 261 273 255 236 251 249 248 250 248
311 301 301 297 300 280 270 249 236 223 203 199 190 196 236 240 220 209 191 181 168 151 149 156 173 207 188 230 227 218 256 220 255 223 254 212 269 280 252 264 257 259 255 249 248
305 310 308 294 306 298 271 265 219 186 183 170 175 190 226 206 181 180 178 174 161 142 127 146 188 228 218 219 225 237 221 253 257 160 236 268 269 271 271 268 261 263 261 260 254
313 315 315 304 299 306 285 276 173 174 178 174 191 175 148 149 141 169 171 165 165 163 150 178 211 221 230 226 256 297 298 274 273 290 283 279 276 276 274 264 260 258 256 255 254
319 319 318 304 302 294 290 280 257 139 166 208 196 164 160 155 133 157 165 163 179 182 155 152 229 239 253 265 245 252 261 267 278 282 296 292 284 285 274 263 260 258 256 256 255
322 317 317 318 314 295 275 262 247 127 208 191 179 172 166 173 154 173 175 185 192 197 194 201 199 244 232 226 239 243 256 270 278 307 299 280 285 262 264 244 244 251 252 253 253
319 310 310 301 311 299 285 255 237 227 163 150 194 207 178 179 152 170 173 164 188 204 196 229 201 197 214 229 232 262 269 271 281 284 274 83 293 289 282 262 253 264 256 252 251
317 302 295 298 292 289 284 341 233 201 174 148 146 167 178 178 130 176 173 178 176 184 181 177 207 212 223 232 225 239 36 274 285 276 296 258 247 259 279 278 257 256 243 258 252
313 304 293 283 261 269 247 233 153 158 161 147 134 169 165 185 139 151 170 209 204 201 222 262 160 214 219 223 218 74 243 268 262 278 259 248 222 279 270 290 312 279 277 260 257
319 323 306 269 210 208 202 164 183 231 154 142 163 161 169 176 154 174 178 180 174 169 218 234 225 217 232 212 198 221 189 231 214 201 245 307 249 242 277 291 274 296 280 287 294
332 331 351 197 151 166 164 110 265 124 123 160 133 149 174 170 184 175 177 194 212 223 167 199 196 197 192 215 182 209 202 226 270 262 294 309 251 247 267 277 301 280 271 265 282
345 51 100 134 155 157 151 149 321 133 132 132 139 153 147 191 151 178 195 202 203 208 207 194 249 191 159 189 221 152 212 247 290 275 270 254 266 271 267 269 273 259 271 266 278
351 47 98 133 148 147 132 237 283 117 129 144 135 185 161 186 161 189 186 204 209 211 217 330 255 173 175 215 227 214 60 173 209 275 276 265 275 269 272 293 271 252 251 249 258
52 58 127 147 127 92 157 36 114 130 123 173 145 166 159 176 188 185 185 133 196 191 199 199 233 126 139 208 202 193 233 217 284 246 273 289 267 299 302 302 322 294 240 233 272
73 72 146 145 113 220 95 3 123 130 330 56 154 141 157 171 183 181 178 87 187 184 190 201 201 248 244 248 233 259 224 226 229 229 229 262 267 276 265 242 247 270 263 284 291
67 91 145 200 142 145 350 166 109 156 185 169 137 160 145 158 166 190 187 116 176 179 174 162 209 282 224 165 233 238 245 248 244 263 255 263 261 18 315 295 271 277 289 276 266
96 89 72 279 292 127 201 124 119 66 66 86 107 132 133 162 42 176 158 163 187 203 76 180 217 238 275 304 324 248 250 257 259 253 264 250 267 269 270 274 306 298 279 280 298
25 66 180 157 152 159 143 116 137 163 108 110 121 177 148 147 171 165 168 149 175 189 180 218 242 255 266 276 280 274 273 272 258 255 254 275 276 274 293 309 277 282 294 285 296
49 10 3 169 165 186 65 137 136 102 67 121 156 151 143 151 143 164 195 213 210 179 202 209 262 313 274 267 259 270 281 283 267 260 254 261 269 277 287 341 322 310 299 304 296
36 35 292 192 182 176 202 182 128 131 52 54 110 126 181 55 337 329 247 272 265 179 199 194 215 268 272 319 308 274 263 272 263 255 255 268 273 285 286 285 293 290 289 296 298
Height
1486 1483 1481 1479 1478 1477 1477 1477 1476 1474 1473 1472 1471 1472 1472 1473 1473 1474 1474 1479 1480 1481 1482 1486 1487 1489 1490 1491 1492 1495 1487 1481 1478 1474 1472 1471 1474 1479 1480 1480 1479 1481 1481 1482 1483
1481 1479 1477 1475 1474 1474 1473 1473 1473 1472 1471 1469 1469 1470 1470 1471 1474 1473 1473 1474 1476 1478 1482 1485 1486 1487 1488 1486 1490 1489 1484 1476 1471 1469 1469 1472 1476 1476 1479 1480 1477 1479 1481 1482 1483
1477 1474 1473 1471 1470 1469 1469 1469 1470 1469 1468 1467 1467 1468 1469 1471 1474 1470 1471 1470 1473 1475 1480 1484 1483 1485 1485 1483 1485 1484 1480 1473 1471 1476 1475 1476 1474 1476 1477 1477 1475 1475 1476 1480 1482
1475 1472 1468 1467 1467 1466 1465 1465 1466 1467 1465 1465 1465 1466 1468 1470 1469 1466 1466 1467 1470 1474 1479 1481 1483 1484 1482 1478 1481 1481 1478 1478 1475 1476 1480 1479 1477 1474 1475 1476 1476 1475 1475 1477 1481
1473 1469 1466 1463 1462 1460 1460 1461 1461 1462 1463 1463 1462 1465 1467 1467 1466 1465 1466 1466 1468 1471 1475 1478 1480 1480 1478 1475 1477 1479 1479 1476 1477 1478 1479 1480 1476 1475 1473 1476 1475 1474 1475 1477 1479
1469 1465 1462 1458 1456 1455 1454 1456 1456 1458 1460 1459 1461 1464 1466 1466 1464 1464 1466 1466 1468 1469 1474 1477 1478 1478 1478 1475 1477 1476 1479 1477 1475 1475 1476 1478 1473 1474 1471 1470 1471 1472 1472 1473 1474
1464 1461 1457 1453 1451 1449 1449 1450 1452 1453 1455 1457 1460 1462 1464 1464 1462 1461 1465 1467 1466 1468 1472 1475 1478 1481 1481 1479 1479 1481 1480 1474 1470 1471 1472 1474 1468 1464 1463 1465 1464 1464 1465 1467 1468
1460 1456 1452 1449 1445 1443 1444 1444 1445 1448 1451 1455 1458 1462 1461 1458 1459 1460 1464 1466 1466 1467 1471 1473 1477 1480 1479 1480 1479 1478 1474 1470 1455 1464 1466 1471 1462 1451 1455 1456 1456 1456 1458 1460 1460
1455 1451 1447 1444 1440 1438 1438 1438 1441 1445 1449 1454 1458 1460 1457 1452 1456 1460 1463 1464 1466 1468 1471 1474 1478 1480 1482 1480 1475 1471 1465 1459 1457 1458 1464 1465 1454 1447 1452 1451 1451 1452 1452 1452 1453
1449 1445 1441 1439 1437 1434 1434 1433 1438 1438 1448 1452 1455 1460 1454 1452 1453 1457 1461 1464 1466 1467 1470 1476 1478 1477 1477 1473 1466 1459 1465 1460 1460 1456 1462 1459 1453 1449 1449 1449 1448 1448 1449 1448 1447
1444 1441 1438 1436 1434 1432 1431 1431 1436 1438 1439 1440 1442 1444 1447 1450 1452 1455 1459 1464 1465 1468 1466 1475 1479 1474 1467 1467 1463 1465 1465 1461 1456 1456 1460 1456 1448 1445 1443 1442 1441 1441 1442 1442 1442
1440 1437 1434 1431 1430 1429 1429 1428 1426 1431 1435 1438 1440 1445 1448 1449 1451 1456 1459 1461 1464 1463 1467 1479 1476 1468 1466 1467 1468 1468 1468 1466 1461 1458 1461 1455 1439 1439 1435 1429 1431 1433 1433 1434 1434
1436 1433 1430 1428 1426 1425 1425 1421 1423 1429 1430 1436 1441 1443 1446 1450 1447 1452 1456 1457 1460 1460 1465 1467 1463 1467 1467 1469 1471 1467 1467 1465 1464 1460 1462 1459 1435 1418 1414 1418 1419 1421 1422 1424 1424
1433 1429 1427 1425 1425 1421 1420 1419 1422 1428 1431 1434 1438 1441 1445 1447 1447 1450 1454 1459 1460 1459 1464 1466 1461 1467 1467 1469 1467 1466 1459 1462 1467 1471 1465 1459 1442 1421 1412 1410 1411 1414 1414 1415 1416
1428 1425 1422 1422 1421 1420 1419 1414 1420 1428 1413 1431 1435 1439 1441 1443 1445 1451 1455 1459 1456 1456 1463 1461 1465 1465 1468 1465 1466 1466 1468 1469 1470 1471 1470 1457 1467 1416 1409 1408 1406 1405 1407 1409 1411
1421 1415 1412 1411 1417 1414 1417 1417 1420 1421 1404 1426 1432 1435 1438 1440 1445 1450 1456 1459 1458 1460 1462 1458 1464 1464 1461 1464 1466 1469 1469 1473 1474 1481 1476 1446 1444 1413 1406 1399 1404 1402 1403 1402 1405
1415 1405 1398 1394 1403 1411 1415 1420 1417 1399 1411 1423 1426 1431 1435 1439 1443 1448 1451 1455 1455 1467 1465 1460 1458 1462 1463 1465 1466 1469 1475 1466 1470 1475 1450 1422 1429 1411 1395 1397 1400 1402 1401 1402 1401
1407 1397 1392 1389 1400 1407 1412 1417 1407 1389 1400 1413 1422 1430 1435 1438 1440 1444 1449 1452 1451 1450 1450 1459 1450 1453 1459 1460 1457 1467 1469 1458 1449 1433 1424 1418 1416 1400 1393 1390 1397 1396 1398 1398 1396
1402 1398 1397 1398 1401 1407 1414 1415 1402 1392 1403 1411 1427 1431 1432 1436 1437 1439 1443 1445 1444 1447 1452 1449 1453 1450 1453 1456 1459 1462 1470 1461 1462 1450 1450 1420 1403 1392 1386 1389 1387 1390 1393 1392 1394
1403 1401 1402 1404 1406 1410 1409 1409 1407 1400 1402 1412 1416 1420 1427 1431 1433 1435 1439 1434 1441 1442 1445 1445 1451 1449 1451 1457 1456 1456 1457 1469 1470 1457 1431 1401 1393 1385 1381 1382 1383 1382 1384 1388 1390
1403 1404 1409 1410 1413 1415 1414 1412 1406 1407 1410 1410 1410 1415 1418 1425 1425 1431 1434 1433 1435 1437 1444 1446 1449 1453 1456 1452 1444 1457 1460 1464 1454 1449 1435 1417 1383 1379 1382 1383 1382 1381 1381 1385 1388
1402 1407 1412 1414 1418 1417 1414 1415 1411 1414 1414 1412 1411 1409 1413 1419 1422 1424 1424 1429 1435 1437 1441 1444 1449 1450 1443 1438 1441 1440 1444 1447 1452 1435 1435 1426 1386 1382 1379 1380 1382 1383 1384 1384 1384
1407 1412 1416 1416 1414 1412 1418 1413 1413 1417 1415 1415 1414 1413 1415 1418 1424 1423 1426 1433 1437 1438 1438 1443 1449 1447 1438 1435 1434 1437 1435 1434 1435 1436 1422 1423 1383 1376 1378 1384 1382 1382 1381 1380 1381
1412 1414 1418 1417 1413 1413 1416 1412 1416 1417 1416 1415 1416 1416 1416 1419 1421 1424 1430 1435 1437 1438 1441 1442 1441 1443 1430 1425 1430 1443 1435 1431 1434 1427 1406 1392 1383 1376 1380 1381 1384 1379 1377 1376 1377
1412 1417 1418 1416 1415 1418 1416 1415 1417 1417 1418 1417 1418 1416 1415 1419 1423 1425 1427 1432 1437 1439 1441 1444 1445 1441 1436 1431 1430 1428 1422 1419 1425 1417 1414 1379 1385 1373 1375 1377 1385 1381 1377 1374 1376
1419 1418 1417 1414 1414 1415 1415 1414 1415 1417 1417 1417 1415 1417 1419 1418 1420 1423 1426 1428 1428 1437 1439 1441 1441 1442 1437 1425 1422 1418 1407 1405 1406 1402 1401 1395 1383 1378 1376 1377 1376 1379 1378 1377 1378
1425 1423 1423 1418 1414 1412 1413 1415 1418 1417 1421 1419 1419 1420 1422 1423 1425 1426 1427 1428 1429 1431 1435 1440 1445 1443 1421 1410 1410 1404 1404 1401 1399 1395 1393 1385 1375 1371 1373 1376 1376 1376 1375 1374 1373